Tracking 18852 objects as of 24-Nov-2017
HD Live streaming from Space Station
objects crossing your sky now

EKRAN 7

Track EKRAN 7 now!
EKRAN 7 is classified as:


NORAD ID: 12564
Int'l Code: 1981-061A
Perigee: 35,781.6 km
Apogee: 35,835.1 km
Inclination: 13.1 °
Period: 1,436.8 minutes
Semi major axis: 42179 km
RCS: 3.9811 m2 (large)
Launch date: June 26, 1981
Source: Commonwealth of Independent States (former USSR) (CIS)
Launch site: TYURATAM MISSILE AND SPACE COMPLEX (TTMTR)
aabbcc
Your satellite tracking list
Your tracking list is empty




NASA's NSSDC Master Catalog

Two Line Element Set (TLE):
1 12564U 81061A   17326.96117955 -.00000179 +00000-0 +00000-0 0  9994
2 12564 013.0894 326.3287 0006342 314.7714 211.8121 01.00219583098145
Source of the keplerian elements: AFSPC